This is the latest recevied weather packets stored in our database for station/object W4KBW. If no packets are shown the sender has not sent any weather packets the latest 10 day(s).
| Time | Temp. | Humidity | Pressure | Rain* | Wind** | Luminosity | Snow |
|---|---|---|---|---|---|---|---|
| 1777701621 | 24.44° C | 100% | 1009.5 hPa | 0 mm | - | - | - |
| 1777700691 | 24.44° C | 100% | 1009.5 hPa | 0 mm | - | - | - |
| 1777699908 | 24.44° C | 100% | 1009.7 hPa | 0 mm | - | - | - |
| 1777699791 | 24.44° C | 100% | 1009.7 hPa | 0 mm | - | - | - |
| 1777698861 | 24.44° C | 100% | 1009.7 hPa | 0 mm | - | - | - |
| 1777697931 | 25° C | 100% | 1009.7 hPa | 0 mm | - | - | - |
| 1777690850 | 27.22° C | 100% | 1009.6 hPa | 0 mm | - | - | - |
| 1777688403 | 27.78° C | 100% | 1009.5 hPa | 0 mm | - | - | - |
| 1777687731 | 28.33° C | 100% | 1009.5 hPa | 0 mm | - | - | - |
| 1777687474 | 27.78° C | 100% | 1009.5 hPa | 0 mm | - | - | - |
| 1777686573 | 28.33° C | 100% | 1009.5 hPa | 0 mm | - | - | - |
| 1777685673 | 28.89° C | 100% | 1009.4 hPa | 0 mm | - | - | - |
| 1777685011 | 28.89° C | 100% | 1009.1 hPa | 0 mm | - | - | - |
| 1777684773 | 28.89° C | 100% | 1009.1 hPa | 0 mm | - | - | - |
| 1777683843 | 29.44° C | 100% | 1009 hPa | 0 mm | - | - | - |
| 1777682914 | 29.44° C | 100% | 1008.6 hPa | 0 mm | - | - | - |
| 1777681983 | 30° C | 100% | 1008.2 hPa | 0 mm | - | - | - |
| 1777681312 | 30.56° C | 100% | 1008 hPa | 0 mm | - | - | - |
| 1777681083 | 30.56° C | 100% | 1008 hPa | 0 mm | - | - | - |
| 1777680153 | 31.11° C | 100% | 1007.9 hPa | 0 mm | - | - | - |
| 1777679223 | 31.11° C | 100% | 1007.7 hPa | 0 mm | - | - | - |
| 1777678293 | 31.67° C | 100% | 1007.5 hPa | 0 mm | - | - | - |
| 1777677363 | 31.67° C | 100% | 1007.4 hPa | 0 mm | - | - | - |
| 1777676593 | 32.22° C | 100% | 1007.3 hPa | 0 mm | - | - | - |
| 1777676463 | 32.22° C | 100% | 1007.3 hPa | 0 mm | - | - | - |
* Rain latest hour (hover to see other rain measurements)
** Current wind speed in m/s (hover to see current wind gust speed)